FW6146 Weather Reports


time (UTC)temp
C
wind
direction
speed
KPH
gust
KPH
rain 1hr
cm
rain 24hr
cm
rain mn
cm
humidity
%
barometer
mb
20260505040957 11 275 1.6 3.2 0.00 0.00 0.00 76 1010.5
20260505040022 11 306 1.6 3.2 0.00 0.00 0.00 76 1010.5
20260505035001 11 304 1.6 3.2 0.00 0.00 0.00 75 1010.6
20260505033946 12 310 0.0 3.2 0.00 0.00 0.00 74 1010.4
20260505033005 12 304 1.6 4.8 0.00 0.00 0.00 73 1010.2
20260505032030 12 297 3.2 4.8 0.00 0.00 0.00 72 1010.3
20260505031008 12 279 1.6 3.2 0.00 0.00 0.00 71 1010.3
20260505025954 12 305 3.2 9.7 0.00 0.00 0.00 70 1010.5
20260505024940 12 304 1.6 3.2 0.00 0.00 0.00 69 1010.6
20260505023959 12 307 3.2 4.8 0.00 0.00 0.00 68 1010.5
20260505022944 12 269 1.6 3.2 0.00 0.00 0.00 67 1010.5
20260505022004 13 288 3.2 8.0 0.00 0.00 0.00 66 1010.4
20260505020949 13 305 1.6 4.8 0.00 0.00 0.00 65 1010.4
20260505020008 13 291 3.2 3.2 0.00 0.00 0.00 63 1010.4
20260505014952 13 299 1.6 8.0 0.00 0.00 0.00 62 1010.4
20260505014011 13 293 1.6 4.8 0.00 0.00 0.00 61 1010.3
20260505012957 13 304 1.6 3.2 0.00 0.00 0.00 59 1010.3
20260505011942 13 299 1.6 4.8 0.00 0.00 0.00 58 1010.0
20260505011001 14 294 1.6 3.2 0.00 0.00 0.00 57 1009.8
20260505005946 14 308 3.2 9.7 0.00 0.00 0.00 57 1009.5
20260505005005 15 286 3.2 8.0 0.00 0.00 0.00 56 1009.5
20260505003951 15 285 3.2 8.0 0.00 0.00 0.00 55 1009.2
20260505003009 15 290 3.2 3.2 0.00 0.00 0.00 55 1009.2
20260505001955 15 273 4.8 9.7 0.00 0.00 0.00 56 1008.8
20260505001012 15 313 3.2 8.0 0.00 0.00 0.00 55 1008.5
20260504235957 15 287 3.2 9.7 0.00 0.00 0.00 54 1008.4
20260504235036 16 284 4.8 11.3 0.00 0.00 0.00 52 1008.3
20260504234042 16 296 4.8 9.7 0.00 0.00 0.00 50 1008.0
20260504232948 17 283 4.8 14.5 0.00 0.00 0.00 46 1007.9
20260504232006 17 311 4.8 11.3 0.00 0.00 0.00 45 1007.6
20260504230951 17 285 6.4 12.9 0.00 0.00 0.00 45 1007.5
20260504230030 18 283 4.8 16.1 0.00 0.00 0.00 45 1007.3
20260504224955 18 280 4.8 11.3 0.00 0.00 0.00 45 1007.1
20260504224013 18 296 8.0 16.1 0.00 0.00 0.00 44 1006.9
20260504222959 18 268 9.7 16.1 0.00 0.00 0.00 43 1006.9
20260504222018 19 295 4.8 11.3 0.00 0.00 0.00 42 1006.9
20260504221004 19 243 6.4 9.7 0.00 0.00 0.00 42 1006.8
20260504220023 20 299 4.8 14.5 0.00 0.00 0.00 40 1006.7
20260504215008 20 251 6.4 12.9 0.00 0.00 0.00 39 1006.9
20260504213953 20 274 6.4 8.0 0.00 0.00 0.00 39 1006.8
20260504213011 20 281 6.4 12.9 0.00 0.00 0.00 37 1006.5
20260504212016 20 293 4.8 9.7 0.00 0.00 0.00 36 1006.6
20260504211030 21 262 6.4 9.7 0.00 0.00 0.00 33 1006.6
20260504205955 21 269 6.4 11.3 0.00 0.00 0.00 33 1006.4
20260504205013 21 263 3.2 9.7 0.00 0.00 0.00 33 1006.4
20260504203959 21 269 4.8 14.5 0.00 0.00 0.00 32 1006.6
20260504203017 21 295 4.8 11.3 0.00 0.00 0.00 33 1006.5
20260504202023 21 309 3.2 4.8 0.00 0.00 0.00 33 1006.4
20260504201022 21 289 6.4 9.7 0.00 0.00 0.00 31 1006.6
20260504200007 21 282 9.7 22.5 0.00 0.00 0.00 31 1006.4
20260504195026 21 249 6.4 14.5 0.00 0.00 0.00 31 1006.5
20260504194011 21 276 8.0 14.5 0.00 0.00 0.00 31 1006.5
20260504192956 21 284 6.4 11.3 0.00 0.00 0.00 32 1006.6
20260504192015 21 265 6.4 11.3 0.00 0.00 0.00 32 1006.6
20260504191000 21 281 6.4 12.9 0.00 0.00 0.00 31 1006.6
20260504190019 21 271 6.4 9.7 0.00 0.00 0.00 32 1006.8
20260504185024 21 278 8.0 11.3 0.00 0.00 0.00 32 1006.7
20260504184022 21 272 6.4 11.3 0.00 0.00 0.00 31 1007.0
20260504183027 21 265 8.0 12.9 0.00 0.00 0.00 31 1007.3
20260504182026 21 292 3.2 11.3 0.00 0.00 0.00 32 1007.0
20260504181032 21 264 6.4 11.3 0.00 0.00 0.00 31 1007.1
20260504180030 21 281 9.7 16.1 0.00 0.00 0.00 30 1007.4
20260504175016 21 286 9.7 16.1 0.00 0.00 0.00 30 1007.3
20260504174002 20 282 6.4 12.9 0.00 0.00 0.00 32 1007.4
20260504173020 21 239 6.4 14.5 0.00 0.00 0.00 31 1007.4
20260504171932 20 279 6.4 14.5 0.00 0.00 0.00 31 1007.3
20260504170918 20 256 11.3 17.7 0.00 0.00 0.00 31 1007.7
20260504150951 18 291 6.4 9.7 0.00 0.00 0.00 37 1008.8
20260504141001 17 247 3.2 11.3 0.00 0.00 0.00 41 1009.2
20260504081927 7 0.0 0.0 0.00 0.00 0.00 57 1010.1
20260504081125 7 0.0 0.0 0.00 0.00 0.00 56 1010.1
20260504050003 5 0.0 1.6 0.00 0.00 0.00 63 1009.8